owner,sensor,date,latitude,longitude,vertical_datum,wind_speed,wind_to_direction,wind_speed_of_gust,qcFlag 
DISL,ioos:station:DISL:KATA:1,2017-03-01T00:00:00Z,30.2583,-88.2131,0.0,4.65,148.1,-999.0,'1111122,1111122,1111122' 
DISL,ioos:station:DISL:KATA:1,2017-03-01T00:30:00Z,30.2583,-88.2131,0.0,4.94,142.0,-999.0,'1111122,1111122,1111122' 
DISL,ioos:station:DISL:KATA:1,2017-03-01T01:00:00Z,30.2583,-88.2131,0.0,5.76,152.6,-999.0,'1111122,1111122,1111122' 
DISL,ioos:station:DISL:KATA:1,2017-03-01T01:30:00Z,30.2583,-88.2131,0.0,6.12,154.2,-999.0,'1111122,1111122,1111122' 
DISL,ioos:station:DISL:KATA:1,2017-03-01T02:00:00Z,30.2583,-88.2131,0.0,5.82,157.4,-999.0,'1111122,1111122,1111122' 
DISL,ioos:station:DISL:KATA:1,2017-03-01T02:30:00Z,30.2583,-88.2131,0.0,5.06,162.6,-999.0,'1111122,1111122,1111122' 
DISL,ioos:station:DISL:KATA:1,2017-03-01T03:00:00Z,30.2583,-88.2131,0.0,4.64,158.8,-999.0,'1111122,1111122,1111122' 
DISL,ioos:station:DISL:KATA:1,2017-03-01T03:30:00Z,30.2583,-88.2131,0.0,5.02,165.6,-999.0,'1111122,1111122,1111122' 
DISL,ioos:station:DISL:KATA:1,2017-03-01T04:00:00Z,30.2583,-88.2131,0.0,5.83,173.5,-999.0,'1111122,1111122,1111122' 
DISL,ioos:station:DISL:KATA:1,2017-03-01T04:30:00Z,30.2583,-88.2131,0.0,5.59,185.9,-999.0,'1111122,1111122,1111122' 
DISL,ioos:station:DISL:KATA:1,2017-03-01T05:00:00Z,30.2583,-88.2131,0.0,5.07,185.4,-999.0,'1111122,1111122,1111122' 
DISL,ioos:station:DISL:KATA:1,2017-03-01T05:30:00Z,30.2583,-88.2131,0.0,4.98,185.9,-999.0,'1111122,1111122,1111122' 
DISL,ioos:station:DISL:KATA:1,2017-03-01T06:00:00Z,30.2583,-88.2131,0.0,4.84,179.6,-999.0,'1111122,1111122,1111122' 
DISL,ioos:station:DISL:KATA:1,2017-03-01T06:30:00Z,30.2583,-88.2131,0.0,5.46,179.9,-999.0,'1111122,1111122,1111122' 
DISL,ioos:station:DISL:KATA:1,2017-03-01T07:00:00Z,30.2583,-88.2131,0.0,5.25,170.9,-999.0,'1111122,1111122,1111122' 
DISL,ioos:station:DISL:KATA:1,2017-03-01T07:30:00Z,30.2583,-88.2131,0.0,5.72,174.0,-999.0,'1111122,1111122,1111122' 
DISL,ioos:station:DISL:KATA:1,2017-03-01T08:00:00Z,30.2583,-88.2131,0.0,6.52,181.1,-999.0,'1111122,1111122,1111122' 
DISL,ioos:station:DISL:KATA:1,2017-03-01T08:30:00Z,30.2583,-88.2131,0.0,6.52,186.9,-999.0,'1111122,1111122,1111122' 
DISL,ioos:station:DISL:KATA:1,2017-03-01T09:00:00Z,30.2583,-88.2131,0.0,6.84,181.0,-999.0,'1111122,1111122,1111122' 
DISL,ioos:station:DISL:KATA:1,2017-03-01T09:30:00Z,30.2583,-88.2131,0.0,8.27,181.3,-999.0,'1111122,1111122,1111122' 
DISL,ioos:station:DISL:KATA:1,2017-03-01T10:00:00Z,30.2583,-88.2131,0.0,9.99,189.3,-999.0,'1111122,1111122,1111122' 
DISL,ioos:station:DISL:KATA:1,2017-03-01T10:30:00Z,30.2583,-88.2131,0.0,9.13,189.5,-999.0,'1111122,1111122,1111122' 
DISL,ioos:station:DISL:KATA:1,2017-03-01T11:00:00Z,30.2583,-88.2131,0.0,7.03,195.9,-999.0,'1111122,1111122,1111122' 
DISL,ioos:station:DISL:KATA:1,2017-03-01T11:30:00Z,30.2583,-88.2131,0.0,6.71,189.1,-999.0,'1111122,1111122,1111122' 
DISL,ioos:station:DISL:KATA:1,2017-03-01T12:00:00Z,30.2583,-88.2131,0.0,7.88,197.2,-999.0,'1111122,1111122,1111122' 
DISL,ioos:station:DISL:KATA:1,2017-03-01T12:30:00Z,30.2583,-88.2131,0.0,6.88,196.8,-999.0,'1111122,1111122,1111122' 
DISL,ioos:station:DISL:KATA:1,2017-03-01T13:00:00Z,30.2583,-88.2131,0.0,6.91,214.5,-999.0,'1111122,1111122,1111122' 
DISL,ioos:station:DISL:KATA:1,2017-03-01T13:30:00Z,30.2583,-88.2131,0.0,6.1,220.6,-999.0,'1111122,1111122,1111122' 
DISL,ioos:station:DISL:KATA:1,2017-03-01T14:00:00Z,30.2583,-88.2131,0.0,5.57,216.0,-999.0,'1111122,1111122,1111122' 
DISL,ioos:station:DISL:KATA:1,2017-03-01T14:30:00Z,30.2583,-88.2131,0.0,3.39,231.9,-999.0,'1111122,1111122,1111122' 
DISL,ioos:station:DISL:KATA:1,2017-03-01T15:00:00Z,30.2583,-88.2131,0.0,3.95,199.2,-999.0,'1111122,1111122,1111122' 
DISL,ioos:station:DISL:KATA:1,2017-03-01T15:30:00Z,30.2583,-88.2131,0.0,2.85,222.1,-999.0,'1111122,1111122,1111122' 
DISL,ioos:station:DISL:KATA:1,2017-03-01T16:00:00Z,30.2583,-88.2131,0.0,2.87,222.9,-999.0,'1111122,1111122,1111122' 
DISL,ioos:station:DISL:KATA:1,2017-03-01T16:30:00Z,30.2583,-88.2131,0.0,1.64,215.0,-999.0,'1111122,1111122,1111122' 
DISL,ioos:station:DISL:KATA:1,2017-03-01T17:00:00Z,30.2583,-88.2131,0.0,2.52,225.2,-999.0,'1111122,1111122,1111122' 
DISL,ioos:station:DISL:KATA:1,2017-03-01T17:30:00Z,30.2583,-88.2131,0.0,3.08,218.4,-999.0,'1111122,1111122,1111122' 
DISL,ioos:station:DISL:KATA:1,2017-03-01T18:00:00Z,30.2583,-88.2131,0.0,3.08,226.5,-999.0,'1111122,1111122,1111122' 
DISL,ioos:station:DISL:KATA:1,2017-03-01T18:30:00Z,30.2583,-88.2131,0.0,2.65,240.8,-999.0,'1111122,1111122,1111122' 
DISL,ioos:station:DISL:KATA:1,2017-03-01T19:00:00Z,30.2583,-88.2131,0.0,3.56,245.2,-999.0,'1111122,1111122,1111122' 
DISL,ioos:station:DISL:KATA:1,2017-03-01T19:30:00Z,30.2583,-88.2131,0.0,4.42,219.3,-999.0,'1111122,1111122,1111122' 
DISL,ioos:station:DISL:KATA:1,2017-03-01T20:00:00Z,30.2583,-88.2131,0.0,4.29,195.2,-999.0,'1111122,1111122,1111122' 
DISL,ioos:station:DISL:KATA:1,2017-03-01T20:30:00Z,30.2583,-88.2131,0.0,3.95,191.1,-999.0,'1111122,1111122,1111122' 
DISL,ioos:station:DISL:KATA:1,2017-03-01T21:00:00Z,30.2583,-88.2131,0.0,5.21,185.3,-999.0,'1111122,1111122,1111122' 
DISL,ioos:station:DISL:KATA:1,2017-03-01T21:30:00Z,30.2583,-88.2131,0.0,5.89,185.7,-999.0,'1111122,1111122,1111122' 
DISL,ioos:station:DISL:KATA:1,2017-03-01T22:00:00Z,30.2583,-88.2131,0.0,6.45,203.2,-999.0,'1111122,1111122,1111122' 
DISL,ioos:station:DISL:KATA:1,2017-03-01T22:30:00Z,30.2583,-88.2131,0.0,6.34,199.7,-999.0,'1111122,1111122,1111122' 
DISL,ioos:station:DISL:KATA:1,2017-03-01T23:00:00Z,30.2583,-88.2131,0.0,7.36,194.7,-999.0,'1111122,1111122,1111122' 
DISL,ioos:station:DISL:KATA:1,2017-03-01T23:30:00Z,30.2583,-88.2131,0.0,7.86,206.0,-999.0,'1111122,1111122,1111122' 
DISL,ioos:station:DISL:KATA:1,2017-03-02T00:00:00Z,30.2583,-88.2131,0.0,8.09,190.7,-999.0,'1111122,1111122,1111122' 
DISL,ioos:station:DISL:KATA:1,2017-03-02T00:30:00Z,30.2583,-88.2131,0.0,7.39,203.9,-999.0,'1111122,1111122,1111122' 
DISL,ioos:station:DISL:KATA:1,2017-03-02T01:00:00Z,30.2583,-88.2131,0.0,6.93,207.2,-999.0,'1111122,1111122,1111122' 
DISL,ioos:station:DISL:KATA:1,2017-03-02T01:30:00Z,30.2583,-88.2131,0.0,7.27,209.2,-999.0,'1111122,1111122,1111122' 
DISL,ioos:station:DISL:KATA:1,2017-03-02T02:00:00Z,30.2583,-88.2131,0.0,7.24,215.6,-999.0,'1111122,1111122,1111122' 
DISL,ioos:station:DISL:KATA:1,2017-03-02T02:30:00Z,30.2583,-88.2131,0.0,7.46,222.3,-999.0,'1111122,1111122,1111122' 
DISL,ioos:station:DISL:KATA:1,2017-03-02T03:00:00Z,30.2583,-88.2131,0.0,6.87,232.4,-999.0,'1111122,1111122,1111122' 
DISL,ioos:station:DISL:KATA:1,2017-03-02T03:30:00Z,30.2583,-88.2131,0.0,6.14,233.3,-999.0,'1111122,1111122,1111122' 
DISL,ioos:station:DISL:KATA:1,2017-03-02T04:00:00Z,30.2583,-88.2131,0.0,8.64,301.8,-999.0,'1111122,1111122,1111122' 
DISL,ioos:station:DISL:KATA:1,2017-03-02T04:30:00Z,30.2583,-88.2131,0.0,10.74,3.363,-999.0,'1111122,1111122,1111122' 
DISL,ioos:station:DISL:KATA:1,2017-03-02T05:00:00Z,30.2583,-88.2131,0.0,10.4,13.72,-999.0,'1111122,1111122,1111122' 
DISL,ioos:station:DISL:KATA:1,2017-03-02T05:30:00Z,30.2583,-88.2131,0.0,8.94,8.08,-999.0,'1111122,1111122,1111122' 
DISL,ioos:station:DISL:KATA:1,2017-03-02T06:00:00Z,30.2583,-88.2131,0.0,8.99,5.958,-999.0,'1111122,1111122,1111122' 
DISL,ioos:station:DISL:KATA:1,2017-03-02T06:30:00Z,30.2583,-88.2131,0.0,8.86,4.696,-999.0,'1111122,1111122,1111122' 
DISL,ioos:station:DISL:KATA:1,2017-03-02T07:00:00Z,30.2583,-88.2131,0.0,9.94,6.857,-999.0,'1111122,1111122,1111122' 
DISL,ioos:station:DISL:KATA:1,2017-03-02T07:30:00Z,30.2583,-88.2131,0.0,10.88,7.35,-999.0,'1111122,1111122,1111122' 
DISL,ioos:station:DISL:KATA:1,2017-03-02T08:00:00Z,30.2583,-88.2131,0.0,12.25,5.643,-999.0,'1111122,1111122,1111122' 
DISL,ioos:station:DISL:KATA:1,2017-03-02T08:30:00Z,30.2583,-88.2131,0.0,13.55,13.59,-999.0,'1111122,1111122,1111122' 
DISL,ioos:station:DISL:KATA:1,2017-03-02T09:00:00Z,30.2583,-88.2131,0.0,12.35,9.78,-999.0,'1111122,1111122,1111122' 
DISL,ioos:station:DISL:KATA:1,2017-03-02T09:30:00Z,30.2583,-88.2131,0.0,12.05,16.02,-999.0,'1111122,1111122,1111122' 
DISL,ioos:station:DISL:KATA:1,2017-03-02T10:00:00Z,30.2583,-88.2131,0.0,13.4,15.68,-999.0,'1111122,1111122,1111122' 
DISL,ioos:station:DISL:KATA:1,2017-03-02T10:30:00Z,30.2583,-88.2131,0.0,11.88,22.28,-999.0,'1111122,1111122,1111122' 
DISL,ioos:station:DISL:KATA:1,2017-03-02T11:00:00Z,30.2583,-88.2131,0.0,10.78,19.65,-999.0,'1111122,1111122,1111122' 
DISL,ioos:station:DISL:KATA:1,2017-03-02T11:30:00Z,30.2583,-88.2131,0.0,10.36,18.37,-999.0,'1111122,1111122,1111122' 
DISL,ioos:station:DISL:KATA:1,2017-03-02T12:00:00Z,30.2583,-88.2131,0.0,9.98,22.41,-999.0,'1111122,1111122,1111122' 
DISL,ioos:station:DISL:KATA:1,2017-03-02T12:30:00Z,30.2583,-88.2131,0.0,11.25,21.38,-999.0,'1111122,1111122,1111122' 
DISL,ioos:station:DISL:KATA:1,2017-03-02T13:00:00Z,30.2583,-88.2131,0.0,13.19,20.35,-999.0,'1111122,1111122,1111122' 
DISL,ioos:station:DISL:KATA:1,2017-03-02T13:30:00Z,30.2583,-88.2131,0.0,13.58,26.4,-999.0,'1111122,1111122,1111122' 
DISL,ioos:station:DISL:KATA:1,2017-03-02T14:00:00Z,30.2583,-88.2131,0.0,11.12,20.88,-999.0,'1111122,1111122,1111122' 
DISL,ioos:station:DISL:KATA:1,2017-03-02T14:30:00Z,30.2583,-88.2131,0.0,12.54,26.39,-999.0,'1111122,1111122,1111122' 
DISL,ioos:station:DISL:KATA:1,2017-03-02T15:00:00Z,30.2583,-88.2131,0.0,12.68,24.04,-999.0,'1111122,1111122,1111122' 
DISL,ioos:station:DISL:KATA:1,2017-03-02T15:30:00Z,30.2583,-88.2131,0.0,13.48,28.01,-999.0,'1111122,1111122,1111122' 
DISL,ioos:station:DISL:KATA:1,2017-03-02T16:00:00Z,30.2583,-88.2131,0.0,13.07,30.05,-999.0,'1111122,1111122,1111122' 
DISL,ioos:station:DISL:KATA:1,2017-03-02T16:30:00Z,30.2583,-88.2131,0.0,10.93,23.77,-999.0,'1111122,1111122,1111122' 
DISL,ioos:station:DISL:KATA:1,2017-03-02T17:00:00Z,30.2583,-88.2131,0.0,10.63,27.4,-999.0,'1111122,1111122,1111122' 
DISL,ioos:station:DISL:KATA:1,2017-03-02T17:30:00Z,30.2583,-88.2131,0.0,11.1,23.12,-999.0,'1111122,1111122,1111122' 
DISL,ioos:station:DISL:KATA:1,2017-03-02T18:00:00Z,30.2583,-88.2131,0.0,9.47,34.88,-999.0,'1111122,1111122,1111122' 
DISL,ioos:station:DISL:KATA:1,2017-03-02T18:30:00Z,30.2583,-88.2131,0.0,7.99,21.76,-999.0,'1111122,1111122,1111122' 
DISL,ioos:station:DISL:KATA:1,2017-03-02T19:00:00Z,30.2583,-88.2131,0.0,8.24,28.72,-999.0,'1111122,1111122,1111122' 
DISL,ioos:station:DISL:KATA:1,2017-03-02T19:30:00Z,30.2583,-88.2131,0.0,7.72,13.33,-999.0,'1111122,1111122,1111122' 
DISL,ioos:station:DISL:KATA:1,2017-03-02T20:00:00Z,30.2583,-88.2131,0.0,8.74,23.14,-999.0,'1111122,1111122,1111122' 
DISL,ioos:station:DISL:KATA:1,2017-03-02T20:30:00Z,30.2583,-88.2131,0.0,8.98,26.46,-999.0,'1111122,1111122,1111122' 
DISL,ioos:station:DISL:KATA:1,2017-03-02T21:00:00Z,30.2583,-88.2131,0.0,9.19,30.51,-999.0,'1111122,1111122,1111122' 
DISL,ioos:station:DISL:KATA:1,2017-03-02T21:30:00Z,30.2583,-88.2131,0.0,9.26,25.17,-999.0,'1111122,1111122,1111122' 
DISL,ioos:station:DISL:KATA:1,2017-03-02T22:00:00Z,30.2583,-88.2131,0.0,9.06,26.64,-999.0,'1111122,1111122,1111122' 
DISL,ioos:station:DISL:KATA:1,2017-03-02T22:30:00Z,30.2583,-88.2131,0.0,7.81,34.35,-999.0,'1111122,1111122,1111122' 
DISL,ioos:station:DISL:KATA:1,2017-03-02T23:00:00Z,30.2583,-88.2131,0.0,8.58,20.89,-999.0,'1111122,1111122,1111122' 
DISL,ioos:station:DISL:KATA:1,2017-03-02T23:30:00Z,30.2583,-88.2131,0.0,7.94,23.19,-999.0,'1111122,1111122,1111122' 
DISL,ioos:station:DISL:KATA:1,2017-03-03T00:00:00Z,30.2583,-88.2131,0.0,8.84,20.51,-999.0,'1111122,1111122,1111122' 
DISL,ioos:station:DISL:KATA:1,2017-03-03T00:30:00Z,30.2583,-88.2131,0.0,8.45,8.33,-999.0,'1111122,1111122,1111122' 
DISL,ioos:station:DISL:KATA:1,2017-03-03T01:00:00Z,30.2583,-88.2131,0.0,7.47,13.08,-999.0,'1111122,1111122,1111122' 
DISL,ioos:station:DISL:KATA:1,2017-03-03T01:30:00Z,30.2583,-88.2131,0.0,6.71,21.59,-999.0,'1111122,1111122,1111122' 
DISL,ioos:station:DISL:KATA:1,2017-03-03T02:00:00Z,30.2583,-88.2131,0.0,6.65,23.82,-999.0,'1111122,1111122,1111122' 
DISL,ioos:station:DISL:KATA:1,2017-03-03T02:30:00Z,30.2583,-88.2131,0.0,7.11,14.31,-999.0,'1111122,1111122,1111122' 
DISL,ioos:station:DISL:KATA:1,2017-03-03T03:00:00Z,30.2583,-88.2131,0.0,8.24,10.78,-999.0,'1111122,1111122,1111122' 
DISL,ioos:station:DISL:KATA:1,2017-03-03T03:30:00Z,30.2583,-88.2131,0.0,8.12,16.3,-999.0,'1111122,1111122,1111122' 
DISL,ioos:station:DISL:KATA:1,2017-03-03T04:00:00Z,30.2583,-88.2131,0.0,8.33,16.47,-999.0,'1111122,1111122,1111122' 
DISL,ioos:station:DISL:KATA:1,2017-03-03T04:30:00Z,30.2583,-88.2131,0.0,8.76,13.14,-999.0,'1111122,1111122,1111122' 
DISL,ioos:station:DISL:KATA:1,2017-03-03T05:00:00Z,30.2583,-88.2131,0.0,10.0,15.55,-999.0,'1111122,1111122,1111122' 
DISL,ioos:station:DISL:KATA:1,2017-03-03T05:30:00Z,30.2583,-88.2131,0.0,9.9,19.35,-999.0,'1111122,1111122,1111122' 
DISL,ioos:station:DISL:KATA:1,2017-03-03T06:00:00Z,30.2583,-88.2131,0.0,8.49,18.17,-999.0,'1111122,1111122,1111122' 
DISL,ioos:station:DISL:KATA:1,2017-03-03T06:30:00Z,30.2583,-88.2131,0.0,7.92,23.34,-999.0,'1111122,1111122,1111122' 
DISL,ioos:station:DISL:KATA:1,2017-03-03T07:00:00Z,30.2583,-88.2131,0.0,8.47,18.93,-999.0,'1111122,1111122,1111122' 
DISL,ioos:station:DISL:KATA:1,2017-03-03T07:30:00Z,30.2583,-88.2131,0.0,8.62,19.78,-999.0,'1111122,1111122,1111122' 
DISL,ioos:station:DISL:KATA:1,2017-03-03T08:00:00Z,30.2583,-88.2131,0.0,8.56,22.4,-999.0,'1111122,1111122,1111122' 
DISL,ioos:station:DISL:KATA:1,2017-03-03T08:30:00Z,30.2583,-88.2131,0.0,8.85,19.57,-999.0,'1111122,1111122,1111122' 
DISL,ioos:station:DISL:KATA:1,2017-03-03T09:00:00Z,30.2583,-88.2131,0.0,9.37,18.44,-999.0,'1111122,1111122,1111122' 
DISL,ioos:station:DISL:KATA:1,2017-03-03T09:30:00Z,30.2583,-88.2131,0.0,9.39,23.08,-999.0,'1111122,1111122,1111122' 
DISL,ioos:station:DISL:KATA:1,2017-03-03T10:00:00Z,30.2583,-88.2131,0.0,8.59,22.75,-999.0,'1111122,1111122,1111122' 
DISL,ioos:station:DISL:KATA:1,2017-03-03T10:30:00Z,30.2583,-88.2131,0.0,8.29,21.36,-999.0,'1111122,1111122,1111122' 
DISL,ioos:station:DISL:KATA:1,2017-03-03T11:00:00Z,30.2583,-88.2131,0.0,8.08,24.05,-999.0,'1111122,1111122,1111122' 
DISL,ioos:station:DISL:KATA:1,2017-03-03T11:30:00Z,30.2583,-88.2131,0.0,7.71,31.38,-999.0,'1111122,1111122,1111122' 
DISL,ioos:station:DISL:KATA:1,2017-03-03T12:00:00Z,30.2583,-88.2131,0.0,7.89,35.67,-999.0,'1111122,1111122,1111122' 
DISL,ioos:station:DISL:KATA:1,2017-03-03T12:30:00Z,30.2583,-88.2131,0.0,7.04,33.56,-999.0,'1111122,1111122,1111122' 
DISL,ioos:station:DISL:KATA:1,2017-03-03T13:00:00Z,30.2583,-88.2131,0.0,7.49,39.57,-999.0,'1111122,1111122,1111122' 
DISL,ioos:station:DISL:KATA:1,2017-03-03T13:30:00Z,30.2583,-88.2131,0.0,9.63,52.03,-999.0,'1111122,1111122,1111122' 
DISL,ioos:station:DISL:KATA:1,2017-03-03T14:00:00Z,30.2583,-88.2131,0.0,9.29,54.68,-999.0,'1111122,1111122,1111122' 
DISL,ioos:station:DISL:KATA:1,2017-03-03T14:30:00Z,30.2583,-88.2131,0.0,8.15,51.79,-999.0,'1111122,1111122,1111122' 
DISL,ioos:station:DISL:KATA:1,2017-03-03T15:00:00Z,30.2583,-88.2131,0.0,8.95,61.56,-999.0,'1111122,1111122,1111122' 
DISL,ioos:station:DISL:KATA:1,2017-03-03T15:30:00Z,30.2583,-88.2131,0.0,8.22,57.01,-999.0,'1111122,1111122,1111122' 
DISL,ioos:station:DISL:KATA:1,2017-03-03T16:00:00Z,30.2583,-88.2131,0.0,7.74,51.25,-999.0,'1111122,1111122,1111122' 
DISL,ioos:station:DISL:KATA:1,2017-03-03T16:30:00Z,30.2583,-88.2131,0.0,7.89,45.34,-999.0,'1111122,1111122,1111122' 
DISL,ioos:station:DISL:KATA:1,2017-03-03T17:00:00Z,30.2583,-88.2131,0.0,7.57,49.68,-999.0,'1111122,1111122,1111122' 
DISL,ioos:station:DISL:KATA:1,2017-03-03T17:30:00Z,30.2583,-88.2131,0.0,7.69,44.25,-999.0,'1111122,1111122,1111122' 
DISL,ioos:station:DISL:KATA:1,2017-03-03T18:00:00Z,30.2583,-88.2131,0.0,7.07,50.85,-999.0,'1111122,1111122,1111122' 
DISL,ioos:station:DISL:KATA:1,2017-03-03T18:30:00Z,30.2583,-88.2131,0.0,8.59,43.01,-999.0,'1111122,1111122,1111122' 
DISL,ioos:station:DISL:KATA:1,2017-03-03T19:00:00Z,30.2583,-88.2131,0.0,8.79,44.07,-999.0,'1111122,1111122,1111122' 
DISL,ioos:station:DISL:KATA:1,2017-03-03T19:30:00Z,30.2583,-88.2131,0.0,8.69,36.68,-999.0,'1111122,1111122,1111122' 
DISL,ioos:station:DISL:KATA:1,2017-03-03T20:00:00Z,30.2583,-88.2131,0.0,7.96,41.3,-999.0,'1111122,1111122,1111122' 
DISL,ioos:station:DISL:KATA:1,2017-03-03T20:30:00Z,30.2583,-88.2131,0.0,8.46,32.25,-999.0,'1111122,1111122,1111122' 
DISL,ioos:station:DISL:KATA:1,2017-03-03T21:00:00Z,30.2583,-88.2131,0.0,8.82,46.63,-999.0,'1111122,1111122,1111122' 
DISL,ioos:station:DISL:KATA:1,2017-03-03T21:30:00Z,30.2583,-88.2131,0.0,8.04,51.26,-999.0,'1111122,1111122,1111122' 
DISL,ioos:station:DISL:KATA:1,2017-03-03T22:00:00Z,30.2583,-88.2131,0.0,9.52,47.73,-999.0,'1111122,1111122,1111122' 
DISL,ioos:station:DISL:KATA:1,2017-03-03T22:30:00Z,30.2583,-88.2131,0.0,7.88,45.33,-999.0,'1111122,1111122,1111122' 
DISL,ioos:station:DISL:KATA:1,2017-03-03T23:00:00Z,30.2583,-88.2131,0.0,8.51,37.81,-999.0,'1111122,1111122,1111122' 
DISL,ioos:station:DISL:KATA:1,2017-03-03T23:30:00Z,30.2583,-88.2131,0.0,8.21,39.32,-999.0,'1111122,1111122,1111122' 
DISL,ioos:station:DISL:KATA:1,2017-03-04T00:00:00Z,30.2583,-88.2131,0.0,6.95,46.07,-999.0,'1111122,1111122,1111122' 
DISL,ioos:station:DISL:KATA:1,2017-03-04T00:30:00Z,30.2583,-88.2131,0.0,8.32,50.14,-999.0,'1111122,1111122,1111122' 
DISL,ioos:station:DISL:KATA:1,2017-03-04T01:00:00Z,30.2583,-88.2131,0.0,8.38,40.88,-999.0,'1111122,1111122,1111122' 
DISL,ioos:station:DISL:KATA:1,2017-03-04T01:30:00Z,30.2583,-88.2131,0.0,7.39,33.91,-999.0,'1111122,1111122,1111122' 
DISL,ioos:station:DISL:KATA:1,2017-03-04T02:00:00Z,30.2583,-88.2131,0.0,6.72,34.94,-999.0,'1111122,1111122,1111122' 
DISL,ioos:station:DISL:KATA:1,2017-03-04T02:30:00Z,30.2583,-88.2131,0.0,5.97,37.17,-999.0,'1111122,1111122,1111122' 
DISL,ioos:station:DISL:KATA:1,2017-03-04T03:00:00Z,30.2583,-88.2131,0.0,6.51,36.76,-999.0,'1111122,1111122,1111122' 
DISL,ioos:station:DISL:KATA:1,2017-03-04T03:30:00Z,30.2583,-88.2131,0.0,6.14,33.48,-999.0,'1111122,1111122,1111122' 
DISL,ioos:station:DISL:KATA:1,2017-03-04T04:00:00Z,30.2583,-88.2131,0.0,8.32,51.24,-999.0,'1111122,1111122,1111122' 
DISL,ioos:station:DISL:KATA:1,2017-03-04T04:30:00Z,30.2583,-88.2131,0.0,8.58,53.44,-999.0,'1111122,1111122,1111122' 
DISL,ioos:station:DISL:KATA:1,2017-03-04T05:00:00Z,30.2583,-88.2131,0.0,7.98,67.3,-999.0,'1111122,1111122,1111122' 
DISL,ioos:station:DISL:KATA:1,2017-03-04T05:30:00Z,30.2583,-88.2131,0.0,8.72,60.1,-999.0,'1111122,1111122,1111122' 
DISL,ioos:station:DISL:KATA:1,2017-03-04T06:00:00Z,30.2583,-88.2131,0.0,8.92,60.65,-999.0,'1111122,1111122,1111122' 
DISL,ioos:station:DISL:KATA:1,2017-03-04T06:30:00Z,30.2583,-88.2131,0.0,9.17,68.61,-999.0,'1111122,1111122,1111122' 
DISL,ioos:station:DISL:KATA:1,2017-03-04T07:00:00Z,30.2583,-88.2131,0.0,9.84,72.44,-999.0,'1111122,1111122,1111122' 
DISL,ioos:station:DISL:KATA:1,2017-03-04T07:30:00Z,30.2583,-88.2131,0.0,10.72,68.35,-999.0,'1111122,1111122,1111122' 
DISL,ioos:station:DISL:KATA:1,2017-03-04T08:00:00Z,30.2583,-88.2131,0.0,10.26,71.57,-999.0,'1111122,1111122,1111122' 
DISL,ioos:station:DISL:KATA:1,2017-03-04T08:30:00Z,30.2583,-88.2131,0.0,10.23,70.61,-999.0,'1111122,1111122,1111122' 
DISL,ioos:station:DISL:KATA:1,2017-03-04T09:00:00Z,30.2583,-88.2131,0.0,10.93,70.34,-999.0,'1111122,1111122,1111122' 
DISL,ioos:station:DISL:KATA:1,2017-03-04T09:30:00Z,30.2583,-88.2131,0.0,10.93,76.84,-999.0,'1111122,1111122,1111122' 
DISL,ioos:station:DISL:KATA:1,2017-03-04T10:00:00Z,30.2583,-88.2131,0.0,10.55,76.81,-999.0,'1111122,1111122,1111122' 
DISL,ioos:station:DISL:KATA:1,2017-03-04T10:30:00Z,30.2583,-88.2131,0.0,10.3,79.33,-999.0,'1111122,1111122,1111122' 
DISL,ioos:station:DISL:KATA:1,2017-03-04T11:00:00Z,30.2583,-88.2131,0.0,9.94,80.8,-999.0,'1111122,1111122,1111122' 
DISL,ioos:station:DISL:KATA:1,2017-03-04T11:30:00Z,30.2583,-88.2131,0.0,10.82,81.2,-999.0,'1111122,1111122,1111122' 
DISL,ioos:station:DISL:KATA:1,2017-03-04T12:00:00Z,30.2583,-88.2131,0.0,11.21,76.57,-999.0,'1111122,1111122,1111122' 
DISL,ioos:station:DISL:KATA:1,2017-03-04T12:30:00Z,30.2583,-88.2131,0.0,10.99,76.76,-999.0,'1111122,1111122,1111122' 
DISL,ioos:station:DISL:KATA:1,2017-03-04T13:00:00Z,30.2583,-88.2131,0.0,11.79,77.43,-999.0,'1111122,1111122,1111122' 
DISL,ioos:station:DISL:KATA:1,2017-03-04T13:30:00Z,30.2583,-88.2131,0.0,11.2,87.4,-999.0,'1111122,1111122,1111122' 
DISL,ioos:station:DISL:KATA:1,2017-03-04T14:00:00Z,30.2583,-88.2131,0.0,10.29,87.2,-999.0,'1111122,1111122,1111122' 
DISL,ioos:station:DISL:KATA:1,2017-03-04T14:30:00Z,30.2583,-88.2131,0.0,10.06,87.6,-999.0,'1111122,1111122,1111122' 
DISL,ioos:station:DISL:KATA:1,2017-03-04T15:00:00Z,30.2583,-88.2131,0.0,9.1,83.0,-999.0,'1111122,1111122,1111122' 
DISL,ioos:station:DISL:KATA:1,2017-03-04T15:30:00Z,30.2583,-88.2131,0.0,8.01,83.9,-999.0,'1111122,1111122,1111122' 
DISL,ioos:station:DISL:KATA:1,2017-03-04T16:00:00Z,30.2583,-88.2131,0.0,7.99,78.18,-999.0,'1111122,1111122,1111122' 
DISL,ioos:station:DISL:KATA:1,2017-03-04T16:30:00Z,30.2583,-88.2131,0.0,8.11,78.97,-999.0,'1111122,1111122,1111122' 
DISL,ioos:station:DISL:KATA:1,2017-03-04T17:00:00Z,30.2583,-88.2131,0.0,7.58,76.7,-999.0,'1111122,1111122,1111122' 
DISL,ioos:station:DISL:KATA:1,2017-03-04T17:30:00Z,30.2583,-88.2131,0.0,7.19,79.87,-999.0,'1111122,1111122,1111122' 
DISL,ioos:station:DISL:KATA:1,2017-03-04T18:00:00Z,30.2583,-88.2131,0.0,7.86,75.1,-999.0,'1111122,1111122,1111122' 
DISL,ioos:station:DISL:KATA:1,2017-03-04T18:30:00Z,30.2583,-88.2131,0.0,8.03,84.5,-999.0,'1111122,1111122,1111122' 
DISL,ioos:station:DISL:KATA:1,2017-03-04T19:00:00Z,30.2583,-88.2131,0.0,7.97,84.9,-999.0,'1111122,1111122,1111122' 
DISL,ioos:station:DISL:KATA:1,2017-03-04T19:30:00Z,30.2583,-88.2131,0.0,7.03,99.2,-999.0,'1111122,1111122,1111122' 
DISL,ioos:station:DISL:KATA:1,2017-03-04T20:00:00Z,30.2583,-88.2131,0.0,8.13,112.1,-999.0,'1111122,1111122,1111122' 
DISL,ioos:station:DISL:KATA:1,2017-03-04T20:30:00Z,30.2583,-88.2131,0.0,8.3,115.7,-999.0,'1111122,1111122,1111122' 
DISL,ioos:station:DISL:KATA:1,2017-03-04T21:00:00Z,30.2583,-88.2131,0.0,7.67,113.3,-999.0,'1111122,1111122,1111122' 
DISL,ioos:station:DISL:KATA:1,2017-03-04T21:30:00Z,30.2583,-88.2131,0.0,7.26,116.1,-999.0,'1111122,1111122,1111122' 
DISL,ioos:station:DISL:KATA:1,2017-03-04T22:00:00Z,30.2583,-88.2131,0.0,7.17,118.4,-999.0,'1111122,1111122,1111122' 
DISL,ioos:station:DISL:KATA:1,2017-03-04T22:30:00Z,30.2583,-88.2131,0.0,7.57,120.4,-999.0,'1111122,1111122,1111122' 
DISL,ioos:station:DISL:KATA:1,2017-03-04T23:00:00Z,30.2583,-88.2131,0.0,7.17,128.8,-999.0,'1111122,1111122,1111122' 
DISL,ioos:station:DISL:KATA:1,2017-03-04T23:30:00Z,30.2583,-88.2131,0.0,7.55,133.1,-999.0,'1111122,1111122,1111122' 
DISL,ioos:station:DISL:KATA:1,2017-03-05T00:00:00Z,30.2583,-88.2131,0.0,6.81,137.5,-999.0,'1111122,1111122,1111122' 
DISL,ioos:station:DISL:KATA:1,2017-03-05T00:30:00Z,30.2583,-88.2131,0.0,7.23,135.3,-999.0,'1111122,1111122,1111122' 
DISL,ioos:station:DISL:KATA:1,2017-03-05T01:00:00Z,30.2583,-88.2131,0.0,7.31,129.4,-999.0,'1111122,1111122,1111122' 
DISL,ioos:station:DISL:KATA:1,2017-03-05T01:30:00Z,30.2583,-88.2131,0.0,6.76,127.5,-999.0,'1111122,1111122,1111122' 
DISL,ioos:station:DISL:KATA:1,2017-03-05T02:00:00Z,30.2583,-88.2131,0.0,5.36,124.6,-999.0,'1111122,1111122,1111122' 
DISL,ioos:station:DISL:KATA:1,2017-03-05T02:30:00Z,30.2583,-88.2131,0.0,4.78,129.1,-999.0,'1111122,1111122,1111122' 
DISL,ioos:station:DISL:KATA:1,2017-03-05T03:00:00Z,30.2583,-88.2131,0.0,4.74,124.0,-999.0,'1111122,1111122,1111122' 
DISL,ioos:station:DISL:KATA:1,2017-03-05T03:30:00Z,30.2583,-88.2131,0.0,4.14,108.1,-999.0,'1111122,1111122,1111122' 
DISL,ioos:station:DISL:KATA:1,2017-03-05T04:00:00Z,30.2583,-88.2131,0.0,3.12,73.95,-999.0,'1111122,1111122,1111122' 
DISL,ioos:station:DISL:KATA:1,2017-03-05T04:30:00Z,30.2583,-88.2131,0.0,2.16,60.63,-999.0,'1111122,1111122,1111122' 
DISL,ioos:station:DISL:KATA:1,2017-03-05T05:00:00Z,30.2583,-88.2131,0.0,4.33,54.99,-999.0,'1111122,1111122,1111122' 
DISL,ioos:station:DISL:KATA:1,2017-03-05T05:30:00Z,30.2583,-88.2131,0.0,4.38,40.92,-999.0,'1111122,1111122,1111122' 